Regional Weather Roundup
Issued by NWS Cleveland, OH

Home | Current Version | Previous Version | Text Only | Print | Product List | Glossary Off
Versions: 1 2 3 4 5 6 7 8 9 10 11 12 13 14 15 16 17 18 19 20 21 22 23 24 25 26 27 28 29 30 31 32 33 34 35 36 37 38 39 40 41 42 43 44 45 46 47 48 49 50

000
ASUS41 KCLE 291510
RWRCLE
OHIO REGIONAL WEATHER ROUNDUP
NATIONAL WEATHER SERVICE WILMINGTON, OH
1100 AM EDT FRI JUL 29 2016

NOTE: "FAIR" INDICATES FEW OR NO CLOUDS BELOW 12,000 FEET WITH NO
SIGNIFICANT WEATHER AND/OR OBSTRUCTIONS TO VISIBILITY.

OHZ001>008-015>018-024>027-034-035-043-044-291600-
   NORTHWEST OHIO

CITY           SKY/WX    TMP DP  RH WIND       PRES   REMARKS
DEFIANCE       FAIR      81  67  62 E5        29.94S
FINDLAY        FAIR      82  66  58 SE5       29.93S
TOLEDO EXPRESS FAIR      80  66  62 E3        29.94S
TOLEDO EXEC    FAIR      82  70  66 NE7       29.95S
LIMA           FAIR      81  71  71 SE5       29.94S
$$

OHZ009>014-019>023-028>033-038-089-291600-
   NORTHEAST OHIO

CITY           SKY/WX    TMP DP  RH WIND       PRES   REMARKS
CLE-HOPKINS    PTSUNNY   81  67  62 N5        29.96F
CLE-LAKEFRONT  FAIR      80  70  71 NW5       29.93F
CUY CO. ARPT   PTSUNNY   82  73  74 SE9       29.95F
LORAIN-ELYRIA  FAIR      80  68  66 CALM      29.95S
ASHTABULA      PTSUNNY   77  71  82 S3        29.97S
AKRON-CANTON   PTSUNNY   76  66  71 SW5       29.97S
WOOSTER        FAIR      75  68  78 VRB3      29.97F
MANSFIELD      PTSUNNY   83  66  56 VRB3      29.96F
YOUNGSTOWN     PTSUNNY   76  68  76 VRB3      29.97F
$$

OHZ042-051>053-060>062-070>072-077>081-291600-
  SOUTHWEST OHIO

CITY           SKY/WX    TMP DP  RH WIND       PRES   REMARKS
CINC-COVINGTON PTSUNNY   79  72  79 VRB5      29.96R
CINC-LUNKEN    CLOUDY    77  73  87 S6        29.96R
HAMILTON       FAIR      82  72  71 S5        29.95S
DAYTON         FAIR      81  69  67 SW5       29.96S
WRIGHT-PAT AFB FAIR      81  72  73 S3        29.94S
DAYTON GENERAL FAIR      81  69  67 VRB6      29.94F
WILMINGTON     CLOUDY    77  72  84 S5        29.96S
$$

OHZ036-037-039>041-045>050-054>059-063>069-073>076-082>088-291600-
  CENTRAL AND SOUTHEAST OHIO

CITY           SKY/WX    TMP DP  RH WIND       PRES   REMARKS
COLUMBUS       CLOUDY    73  70  90 S5        29.95S FOG
OSU AIRPORT    CLOUDY    74  72  93 E7        29.96R FOG
BOLTON FIELD     N/A     72  72 100 MISG        N/A  FOG
RICKENBACK AFB CLOUDY    74  71  92 S6        29.95S
NEWARK         CLOUDY    75  70  84 S5        29.96R
MARION         FAIR      81  68  64 SE6       29.96S
LANCASTER      CLOUDY    76  72  87 VRB3      29.96S
ZANESVILLE     CLOUDY    77  70  79 S7        29.96S
NEW PHILLY     CLOUDY    77  68  73 CALM      29.97S
$$




USA.gov is the U.S. government's official web portal to all federal, state and local government web resources and services.